Location: ??????
(30.5519°N, 47.7720°E)
Time: 17:25:33
(UTC+00:00)

Cosmos 1538 Rocket - Pass Details

Date: 24 January 2021
Orbit: 753 x 791 km, 74.0° (Epoch: 01 March)

Event Time Altitude Azimuth Distance (km) Brightness Sun altitude
Rises 14:51:24 0° 342° (NNW) 3,205 7.2 -7.6°
Reaches altitude 10° 14:53:46 10° 341° (NNW) 2,278 6.5 -8.0°
Maximum altitude 14:58:55 79° 256° (WSW) 771 4.2 -9.1°
Drops below altitude 10° 15:04:04 10° 170° (S) 2,278 6.5 -10.2°
Sets 15:06:26 0° 168° (SSE) 3,205 7.3 -10.7°
